| time (UTC) | temp F | wind direction | speed MPH | gust MPH | rain 1hr in | rain 24hr in | rain mn in | humidity % | barometer mb |
| 20260902103705 | 82 | 250 | 4.0 | 9.0 | 0.00 | 0.00 | 0.00 | 44 | 1025.3 |
| 20260902102706 | 81 | 297 | 3.0 | 7.0 | 0.00 | 0.00 | 0.00 | 45 | 1025.4 |
| 20260902102204 | 81 | 354 | 4.0 | 7.0 | 0.00 | 0.00 | 0.00 | 44 | 1025.5 |
| 20260902101704 | 81 | 354 | 3.0 | 6.0 | 0.00 | 0.00 | 0.00 | 47 | 1025.7 |
| 20260902101205 | 81 | 26 | 3.0 | 7.0 | 0.00 | 0.00 | 0.00 | 48 | 1025.6 |
| 20260902100704 | 80 | 349 | 3.0 | 8.0 | 0.00 | 0.00 | 0.00 | 49 | 1025.7 |
| 20260902100205 | 80 | 10 | 4.0 | 8.0 | 0.00 | 0.00 | 0.00 | 49 | 1025.7 |
| 20260902095705 | 79 | 7 | 3.0 | 5.0 | 0.00 | 0.00 | 0.00 | 50 | 1025.9 |
| 20260902094706 | 78 | 294 | 1.0 | 5.0 | 0.00 | 0.00 | 0.00 | 49 | 1025.9 |
| 20260902094206 | 78 | 213 | 2.0 | 5.0 | 0.00 | 0.00 | 0.00 | 47 | 1026.0 |
| 20260902093705 | 78 | 199 | 2.0 | 3.0 | 0.00 | 0.00 | 0.00 | 49 | 1026.2 |
| 20260902093204 | 77 | 348 | 2.0 | 5.0 | 0.00 | 0.00 | 0.00 | 52 | 1026.0 |
| 20260902092704 | 77 | 315 | 2.0 | 5.0 | 0.00 | 0.00 | 0.00 | 53 | 1026.1 |
| 20260902092204 | 76 | 147 | 2.0 | 3.0 | 0.00 | 0.00 | 0.00 | 53 | 1026.2 |
| 20260902091704 | 76 | 342 | 2.0 | 5.0 | 0.00 | 0.00 | 0.00 | 54 | 1026.3 |
| 20260902091204 | 75 | 114 | 2.0 | 3.0 | 0.00 | 0.00 | 0.00 | 57 | 1026.3 |
| 20260902090706 | 75 | 11 | 1.0 | 3.0 | 0.00 | 0.00 | 0.00 | 57 | 1026.3 |
| 20260902090204 | 74 | 244 | 2.0 | 3.0 | 0.00 | 0.00 | 0.00 | 57 | 1026.4 |
| 20260902085206 | 74 | 200 | 1.0 | 5.0 | 0.00 | 0.00 | 0.00 | 59 | 1026.3 |
| 20260902084705 | 73 | 132 | 1.0 | 3.0 | 0.00 | 0.00 | 0.00 | 60 | 1026.6 |
| 20260902084204 | 73 | 222 | 1.0 | 2.0 | 0.00 | 0.00 | 0.00 | 60 | 1026.6 |
| 20260902083706 | 72 | 167 | 1.0 | 3.0 | 0.00 | 0.00 | 0.00 | 62 | 1026.8 |
| 20260902083204 | 71 | 260 | 0.0 | 2.0 | 0.00 | 0.00 | 0.00 | 63 | 1026.5 |
| 20260902082204 | 70 | 228 | 1.0 | 2.0 | 0.00 | 0.00 | 0.00 | 66 | 1026.5 |
| 20260902081205 | 68 | 116 | 2.0 | 3.0 | 0.00 | 0.00 | 0.00 | 71 | 1026.8 |
| 20260902080705 | 67 | 287 | 2.0 | 3.0 | 0.00 | 0.00 | 0.00 | 72 | 1026.7 |
| 20260902080204 | 67 | 244 | 2.0 | 3.0 | 0.00 | 0.00 | 0.00 | 72 | 1027.0 |
| 20260902074705 | 64 | 234 | 1.0 | 3.0 | 0.00 | 0.00 | 0.00 | 76 | 1026.7 |
| 20260902074206 | 63 | 248 | 1.0 | 2.0 | 0.00 | 0.00 | 0.00 | 77 | 1026.8 |
| 20260902073704 | 63 | 8 | 1.0 | 2.0 | 0.00 | 0.00 | 0.00 | 78 | 1026.7 |
| 20260902073204 | 63 | 323 | 1.0 | 2.0 | 0.00 | 0.00 | 0.00 | 78 | 1026.5 |
| 20260902072705 | 63 | 309 | 1.0 | 2.0 | 0.00 | 0.00 | 0.00 | 79 | 1026.8 |
| 20260902072205 | 63 | 188 | 0.0 | 2.0 | 0.00 | 0.00 | 0.00 | 79 | 1026.6 |
| 20260902071705 | 62 | 3 | 1.0 | 2.0 | 0.00 | 0.00 | 0.00 | 80 | 1026.8 |
| 20260902071204 | 62 | 103 | 1.0 | 2.0 | 0.00 | 0.00 | 0.00 | 80 | 1026.5 |
| 20260902070705 | 62 | 348 | 2.0 | 3.0 | 0.00 | 0.00 | 0.00 | 81 | 1026.4 |
| 20260902070204 | 62 | 350 | 1.0 | 2.0 | 0.00 | 0.00 | 0.00 | 82 | 1026.6 |
| 20260902065706 | 61 | 184 | 0.0 | 2.0 | 0.00 | 0.00 | 0.00 | 83 | 1026.6 |
| 20260902065204 | 61 | 94 | 1.0 | 3.0 | 0.00 | 0.00 | 0.00 | 83 | 1026.3 |
| 20260902064705 | 60 | 350 | 1.0 | 2.0 | 0.00 | 0.00 | 0.00 | 83 | 1026.4 |
| 20260902064205 | 60 | 115 | 0.0 | 2.0 | 0.00 | 0.00 | 0.00 | 84 | 1026.3 |
| 20260902063705 | 60 | 119 | 1.0 | 2.0 | 0.00 | 0.00 | 0.00 | 85 | 1026.4 |
| 20260902062704 | 59 | 9 | 1.0 | 3.0 | 0.00 | 0.00 | 0.00 | 86 | 1026.3 |
| 20260902062205 | 58 | 56 | 1.0 | 2.0 | 0.00 | 0.00 | 0.00 | 86 | 1026.3 |
| 20260902061704 | 58 | 13 | 0.0 | 2.0 | 0.00 | 0.00 | 0.00 | 86 | 1026.6 |
| 20260902061204 | 57 | 346 | 1.0 | 2.0 | 0.00 | 0.00 | 0.00 | 86 | 1026.4 |
| 20260902060204 | 57 | 0 | 2.0 | 2.0 | 0.00 | 0.00 | 0.00 | 86 | 1026.2 |
| 20260902055204 | 56 | 275 | 1.0 | 2.0 | 0.00 | 0.00 | 0.00 | 87 | 1026.4 |
| 20260902054706 | 56 | 285 | 1.0 | 3.0 | 0.00 | 0.00 | 0.00 | 87 | 1026.3 |
| 20260902054204 | 56 | 250 | 1.0 | 2.0 | 0.00 | 0.00 | 0.00 | 87 | 1026.4 |
| 20260902053204 | 55 | 188 | 1.0 | 2.0 | 0.00 | 0.00 | 0.00 | 88 | 1026.2 |
| 20260902052706 | 55 | 198 | 0.0 | 2.0 | 0.00 | 0.00 | 0.00 | 87 | 1026.4 |
| 20260902051704 | 54 | 34 | 1.0 | 2.0 | 0.00 | 0.00 | 0.00 | 87 | 1026.3 |
| 20260902051205 | 54 | 302 | 0.0 | 2.0 | 0.00 | 0.00 | 0.00 | 87 | 1026.1 |
| 20260902050704 | 54 | 254 | 1.0 | 2.0 | 0.00 | 0.00 | 0.00 | 87 | 1026.2 |
| 20260902045706 | 53 | 238 | 1.0 | 1.0 | 0.00 | 0.00 | 0.00 | 87 | 1026.3 |
| 20260902045204 | 53 | 7 | 0.0 | 2.0 | 0.00 | 0.00 | 0.00 | 87 | 1026.3 |
| 20260902044704 | 53 | 61 | 1.0 | 2.0 | 0.00 | 0.00 | 0.00 | 86 | 1026.3 |
| 20260902044204 | 53 | 25 | 1.0 | 2.0 | 0.00 | 0.00 | 0.00 | 86 | 1026.1 |
| 20260902043704 | 53 | 274 | 1.0 | 3.0 | 0.00 | 0.00 | 0.00 | 86 | 1026.1 |
| 20260902043204 | 53 | 277 | 2.0 | 2.0 | 0.00 | 0.00 | 0.00 | 86 | 1026.2 |
| 20260902042706 | 53 | 306 | 1.0 | 2.0 | 0.00 | 0.00 | 0.00 | 86 | 1026.1 |
| 20260902040705 | 53 | 249 | 1.0 | 2.0 | 0.00 | 0.00 | 0.00 | 86 | 1025.8 |
| 20260902040204 | 53 | 247 | 1.0 | 2.0 | 0.00 | 0.00 | 0.00 | 86 | 1025.9 |
| 20260902035705 | 53 | 255 | 1.0 | 2.0 | 0.00 | 0.00 | 0.00 | 86 | 1025.9 |
| 20260902034204 | 53 | 272 | 1.0 | 2.0 | 0.00 | 0.00 | 0.00 | 86 | 1025.9 |
| 20260902033704 | 53 | 282 | 1.0 | 2.0 | 0.00 | 0.00 | 0.00 | 86 | 1026.0 |
| 20260902032704 | 53 | 262 | 1.0 | 2.0 | 0.00 | 0.00 | 0.00 | 85 | 1025.7 |
| 20260902032204 | 53 | 274 | 1.0 | 2.0 | 0.00 | 0.00 | 0.00 | 85 | 1025.6 |
| 20260902031704 | 53 | 273 | 1.0 | 2.0 | 0.00 | 0.00 | 0.00 | 85 | 1025.7 |
| 20260902031204 | 53 | 258 | 1.0 | 2.0 | 0.00 | 0.00 | 0.00 | 85 | 1025.6 |
| 20260902030704 | 53 | 285 | 2.0 | 2.0 | 0.00 | 0.00 | 0.00 | 85 | 1025.6 |
| 20260902030206 | 53 | 244 | 0.0 | 2.0 | 0.00 | 0.00 | 0.00 | 85 | 1025.6 |
| 20260902025706 | 53 | 255 | 1.0 | 2.0 | 0.00 | 0.00 | 0.00 | 85 | 1025.8 |
| 20260902024704 | 53 | 271 | 1.0 | 2.0 | 0.00 | 0.00 | 0.00 | 85 | 1025.6 |
| 20260902023704 | 53 | 275 | 1.0 | 2.0 | 0.00 | 0.00 | 0.00 | 84 | 1025.7 |
| 20260902023204 | 53 | 21 | 0.0 | 2.0 | 0.00 | 0.00 | 0.00 | 84 | 1025.5 |
| 20260902022705 | 53 | 307 | 1.0 | 2.0 | 0.00 | 0.00 | 0.00 | 84 | 1025.7 |
| 20260902022206 | 53 | 276 | 1.0 | 2.0 | 0.00 | 0.00 | 0.00 | 84 | 1025.8 |
| 20260902021704 | 53 | 242 | 2.0 | 3.0 | 0.00 | 0.00 | 0.00 | 84 | 1025.8 |
| 20260902021204 | 53 | 266 | 2.0 | 3.0 | 0.00 | 0.00 | 0.00 | 84 | 1025.8 |
| 20260902020706 | 53 | 287 | 0.0 | 1.0 | 0.00 | 0.00 | 0.00 | 84 | 1025.6 |
| 20260902020205 | 53 | 266 | 1.0 | 1.0 | 0.00 | 0.00 | 0.00 | 84 | 1025.9 |
| 20260902015205 | 53 | 303 | 1.0 | 2.0 | 0.00 | 0.00 | 0.00 | 83 | 1025.8 |
| 20260902013704 | 54 | 265 | 2.0 | 3.0 | 0.00 | 0.00 | 0.00 | 84 | 1026.0 |
| 20260902011704 | 53 | 345 | 1.0 | 2.0 | 0.00 | 0.00 | 0.00 | 83 | 1025.5 |
| 20260902011207 | 53 | 12 | 1.0 | 1.0 | 0.00 | 0.00 | 0.00 | 82 | 1025.7 |
| 20260902010704 | 54 | 243 | 1.0 | 2.0 | 0.00 | 0.00 | 0.00 | 82 | 1025.6 |
| 20260902010204 | 54 | 257 | 2.0 | 2.0 | 0.00 | 0.00 | 0.00 | 82 | 1025.6 |
| 20260902005704 | 54 | 265 | 1.0 | 2.0 | 0.00 | 0.00 | 0.00 | 82 | 1025.7 |
| 20260902005204 | 54 | 305 | 1.0 | 2.0 | 0.00 | 0.00 | 0.00 | 82 | 1025.9 |
| 20260902004704 | 53 | 322 | 1.0 | 2.0 | 0.00 | 0.00 | 0.00 | 82 | 1025.9 |
| 20260902004205 | 54 | 323 | 1.0 | 2.0 | 0.00 | 0.00 | 0.00 | 82 | 1025.7 |
| 20260902003704 | 54 | 303 | 0.0 | 1.0 | 0.00 | 0.00 | 0.00 | 82 | 1025.6 |
| 20260902003205 | 54 | 268 | 1.0 | 2.0 | 0.00 | 0.00 | 0.00 | 82 | 1025.9 |
| 20260902002705 | 54 | 262 | 2.0 | 2.0 | 0.00 | 0.00 | 0.00 | 82 | 1026.0 |
| 20260902001705 | 54 | 252 | 2.0 | 2.0 | 0.00 | 0.00 | 0.00 | 82 | 1026.0 |
| 20260902001204 | 54 | 275 | 1.0 | 2.0 | 0.00 | 0.00 | 0.00 | 81 | 1026.0 |
| 20260902000204 | 54 | 346 | 2.0 | 2.0 | 0.00 | 0.00 | 0.00 | 81 | 1025.8 |
| 20260901235704 | 54 | 337 | 2.0 | 2.0 | 0.00 | 0.00 | 0.00 | 81 | 1025.8 |
| 20260901235205 | 54 | 6 | 1.0 | 2.0 | 0.00 | 0.00 | 0.00 | 81 | 1025.8 |
| 20260901233704 | 54 | 354 | 2.0 | 2.0 | 0.00 | 0.00 | 0.00 | 80 | 1026.1 |
| 20260901232703 | 54 | 280 | 1.0 | 2.0 | 0.00 | 0.00 | 0.00 | 79 | 1025.7 |
| 20260901231204 | 54 | 328 | 1.0 | 2.0 | 0.00 | 0.00 | 0.00 | 79 | 1025.7 |
| 20260901230704 | 54 | 341 | 1.0 | 2.0 | 0.00 | 0.00 | 0.00 | 78 | 1025.9 |
| 20260901230206 | 54 | 276 | 2.0 | 2.0 | 0.00 | 0.00 | 0.00 | 78 | 1025.8 |
| 20260901225704 | 54 | 275 | 1.0 | 2.0 | 0.00 | 0.00 | 0.00 | 78 | 1025.8 |
| 20260901225204 | 54 | 297 | 2.0 | 3.0 | 0.00 | 0.00 | 0.00 | 78 | 1025.9 |
| 20260901224706 | 54 | 271 | 2.0 | 2.0 | 0.00 | 0.00 | 0.00 | 78 | 1025.9 |
| 20260901224204 | 54 | 295 | 2.0 | 2.0 | 0.00 | 0.00 | 0.00 | 78 | 1025.8 |
| 20260901223704 | 55 | 264 | 1.0 | 2.0 | 0.00 | 0.00 | 0.00 | 77 | 1025.8 |
| 20260901222704 | 55 | 256 | 1.0 | 2.0 | 0.00 | 0.00 | 0.00 | 77 | 1025.9 |
| 20260901222205 | 55 | 241 | 2.0 | 2.0 | 0.00 | 0.00 | 0.00 | 77 | 1025.7 |
| 20260901221705 | 55 | 278 | 1.0 | 2.0 | 0.00 | 0.00 | 0.00 | 77 | 1025.8 |
| 20260901220704 | 55 | 275 | 2.0 | 2.0 | 0.00 | 0.00 | 0.00 | 76 | 1025.8 |
| 20260901220206 | 55 | 273 | 2.0 | 2.0 | 0.00 | 0.00 | 0.00 | 76 | 1025.6 |
| 20260901215704 | 56 | 275 | 1.0 | 2.0 | 0.00 | 0.00 | 0.00 | 76 | 1025.6 |
| 20260901215206 | 56 | 290 | 2.0 | 2.0 | 0.00 | 0.00 | 0.00 | 76 | 1025.7 |
| 20260901214206 | 56 | 280 | 2.0 | 3.0 | 0.00 | 0.00 | 0.00 | 75 | 1025.7 |
| 20260901213704 | 56 | 271 | 1.0 | 2.0 | 0.00 | 0.00 | 0.00 | 75 | 1025.7 |
| 20260901212704 | 56 | 310 | 1.0 | 2.0 | 0.00 | 0.00 | 0.00 | 74 | 1025.6 |
| 20260901211704 | 57 | 289 | 2.0 | 3.0 | 0.00 | 0.00 | 0.00 | 74 | 1025.5 |
| 20260901211206 | 57 | 266 | 2.0 | 3.0 | 0.00 | 0.00 | 0.00 | 73 | 1025.4 |
| 20260901210704 | 57 | 279 | 1.0 | 3.0 | 0.00 | 0.00 | 0.00 | 73 | 1025.6 |
| 20260901210203 | 57 | 333 | 1.0 | 2.0 | 0.00 | 0.00 | 0.00 | 72 | 1025.5 |
| 20260901205704 | 57 | 281 | 1.0 | 3.0 | 0.00 | 0.00 | 0.00 | 72 | 1025.5 |
| 20260901204204 | 58 | 331 | 2.0 | 3.0 | 0.00 | 0.00 | 0.00 | 71 | 1025.4 |
| 20260901203706 | 58 | 282 | 1.0 | 3.0 | 0.00 | 0.00 | 0.00 | 71 | 1025.5 |
| 20260901203204 | 58 | 269 | 2.0 | 3.0 | 0.00 | 0.00 | 0.00 | 72 | 1025.4 |
| 20260901202704 | 58 | 266 | 2.0 | 2.0 | 0.00 | 0.00 | 0.00 | 71 | 1025.3 |
| 20260901201204 | 59 | 343 | 2.0 | 3.0 | 0.00 | 0.00 | 0.00 | 70 | 1025.4 |
| 20260901200704 | 59 | 324 | 2.0 | 2.0 | 0.00 | 0.00 | 0.00 | 70 | 1025.4 |
| 20260901200204 | 59 | 278 | 1.0 | 2.0 | 0.00 | 0.00 | 0.00 | 69 | 1025.2 |
| 20260901195204 | 60 | 300 | 1.0 | 2.0 | 0.00 | 0.00 | 0.00 | 68 | 1025.2 |
| 20260901194704 | 60 | 271 | 1.0 | 2.0 | 0.00 | 0.00 | 0.00 | 68 | 1025.3 |
| 20260901194204 | 60 | 350 | 1.0 | 2.0 | 0.00 | 0.00 | 0.00 | 68 | 1025.3 |
| 20260901192704 | 61 | 345 | 2.0 | 3.0 | 0.00 | 0.00 | 0.00 | 65 | 1025.1 |
| 20260901192204 | 61 | 315 | 1.0 | 3.0 | 0.00 | 0.00 | 0.00 | 65 | 1025.1 |
| 20260901191706 | 62 | 277 | 2.0 | 3.0 | 0.00 | 0.00 | 0.00 | 66 | 1025.0 |
| 20260901191205 | 62 | 253 | 1.0 | 3.0 | 0.00 | 0.00 | 0.00 | 65 | 1024.9 |
| 20260901190706 | 62 | 277 | 1.0 | 2.0 | 0.00 | 0.00 | 0.00 | 65 | 1025.0 |
| 20260901185706 | 63 | 342 | 1.0 | 2.0 | 0.00 | 0.00 | 0.00 | 65 | 1025.0 |
| 20260901185205 | 63 | 295 | 1.0 | 2.0 | 0.00 | 0.00 | 0.00 | 64 | 1024.9 |
| 20260901184707 | 64 | 283 | 1.0 | 3.0 | 0.00 | 0.00 | 0.00 | 64 | 1024.9 |
| 20260901183706 | 64 | 338 | 1.0 | 3.0 | 0.00 | 0.00 | 0.00 | 61 | 1024.7 |
| 20260901183206 | 65 | 337 | 1.0 | 2.0 | 0.00 | 0.00 | 0.00 | 60 | 1024.6 |
| 20260901182206 | 65 | 289 | 1.0 | 2.0 | 0.00 | 0.00 | 0.00 | 59 | 1024.6 |
| 20260901181706 | 66 | 278 | 1.0 | 2.0 | 0.00 | 0.00 | 0.00 | 59 | 1024.6 |
| 20260901180706 | 67 | 320 | 1.0 | 2.0 | 0.00 | 0.00 | 0.00 | 58 | 1024.4 |
| 20260901180206 | 67 | 0 | 1.0 | 3.0 | 0.00 | 0.00 | 0.00 | 58 | 1024.4 |
| 20260901175706 | 68 | 322 | 1.0 | 2.0 | 0.00 | 0.00 | 0.00 | 57 | 1024.3 |
| 20260901175205 | 68 | 303 | 1.0 | 2.0 | 0.00 | 0.00 | 0.00 | 56 | 1024.1 |
| 20260901174705 | 69 | 324 | 1.0 | 2.0 | 0.00 | 0.00 | 0.00 | 55 | 1024.2 |
| 20260901174205 | 69 | 317 | 1.0 | 2.0 | 0.00 | 0.00 | 0.00 | 54 | 1023.9 |
| 20260901173707 | 69 | 306 | 1.0 | 1.0 | 0.00 | 0.00 | 0.00 | 52 | 1024.0 |
| 20260901172706 | 70 | 311 | 0.0 | 1.0 | 0.00 | 0.00 | 0.00 | 50 | 1023.9 |
| 20260901172206 | 71 | 306 | 0.0 | 2.0 | 0.00 | 0.00 | 0.00 | 49 | 1023.9 |
| 20260901171705 | 71 | 303 | 1.0 | 2.0 | 0.00 | 0.00 | 0.00 | 48 | 1023.8 |
| 20260901171206 | 72 | 326 | 1.0 | 3.0 | 0.00 | 0.00 | 0.00 | 47 | 1024.1 |
| 20260901170706 | 72 | 290 | 1.0 | 2.0 | 0.00 | 0.00 | 0.00 | 46 | 1023.9 |
| 20260901170206 | 73 | 321 | 2.0 | 3.0 | 0.00 | 0.00 | 0.00 | 46 | 1023.9 |
| 20260901165705 | 73 | 344 | 2.0 | 3.0 | 0.00 | 0.00 | 0.00 | 45 | 1024.1 |
| 20260901165207 | 73 | 336 | 3.0 | 5.0 | 0.00 | 0.00 | 0.00 | 45 | 1024.0 |
| 20260901164207 | 74 | 345 | 3.0 | 5.0 | 0.00 | 0.00 | 0.00 | 44 | 1023.8 |
| 20260901163706 | 74 | 330 | 2.0 | 5.0 | 0.00 | 0.00 | 0.00 | 43 | 1023.7 |
| 20260901163206 | 75 | 339 | 3.0 | 5.0 | 0.00 | 0.00 | 0.00 | 43 | 1023.9 |
| 20260901162706 | 75 | 336 | 2.0 | 3.0 | 0.00 | 0.00 | 0.00 | 42 | 1023.8 |
| 20260901161706 | 76 | 328 | 2.0 | 5.0 | 0.00 | 0.00 | 0.00 | 41 | 1023.8 |
| 20260901160705 | 76 | 340 | 3.0 | 8.0 | 0.00 | 0.00 | 0.00 | 41 | 1023.9 |
| 20260901160205 | 76 | 350 | 4.0 | 8.0 | 0.00 | 0.00 | 0.00 | 40 | 1024.0 |
| 20260901155706 | 77 | 327 | 3.0 | 5.0 | 0.00 | 0.00 | 0.00 | 40 | 1023.9 |
| 20260901155206 | 77 | 346 | 4.0 | 6.0 | 0.00 | 0.00 | 0.00 | 39 | 1023.8 |
| 20260901154705 | 78 | 337 | 4.0 | 7.0 | 0.00 | 0.00 | 0.00 | 39 | 1023.7 |
| 20260901154206 | 78 | 345 | 5.0 | 10.0 | 0.00 | 0.00 | 0.00 | 39 | 1024.0 |
| 20260901153705 | 78 | 336 | 4.0 | 9.0 | 0.00 | 0.00 | 0.00 | 38 | 1023.7 |
| 20260901153206 | 79 | 352 | 6.0 | 9.0 | 0.00 | 0.00 | 0.00 | 37 | 1023.7 |
| 20260901152705 | 79 | 346 | 7.0 | 12.0 | 0.00 | 0.00 | 0.00 | 37 | 1023.7 |
| 20260901152205 | 80 | 349 | 4.0 | 7.0 | 0.00 | 0.00 | 0.00 | 37 | 1023.7 |
| 20260901151706 | 80 | 334 | 6.0 | 13.0 | 0.00 | 0.00 | 0.00 | 36 | 1023.7 |
| 20260901150206 | 80 | 335 | 8.0 | 14.0 | 0.00 | 0.00 | 0.00 | 36 | 1023.8 |
| 20260901145707 | 80 | 333 | 8.0 | 13.0 | 0.00 | 0.00 | 0.00 | 36 | 1023.7 |
| 20260901145206 | 80 | 339 | 4.0 | 10.0 | 0.00 | 0.00 | 0.00 | 37 | 1024.0 |
| 20260901144705 | 80 | 329 | 5.0 | 14.0 | 0.00 | 0.00 | 0.00 | 37 | 1023.6 |
| 20260901144206 | 80 | 329 | 6.0 | 12.0 | 0.00 | 0.00 | 0.00 | 38 | 1023.9 |
| 20260901143707 | 80 | 349 | 6.0 | 15.0 | 0.00 | 0.00 | 0.00 | 37 | 1023.8 |
| 20260901143205 | 80 | 344 | 5.0 | 12.0 | 0.00 | 0.00 | 0.00 | 40 | 1023.7 |
| 20260901142707 | 80 | 345 | 6.0 | 10.0 | 0.00 | 0.00 | 0.00 | 39 | 1023.8 |
| 20260901142205 | 80 | 337 | 6.0 | 13.0 | 0.00 | 0.00 | 0.00 | 38 | 1023.6 |
| 20260901141207 | 79 | 337 | 5.0 | 10.0 | 0.00 | 0.00 | 0.00 | 39 | 1023.9 |
| 20260901140205 | 80 | 323 | 5.0 | 9.0 | 0.00 | 0.00 | 0.00 | 39 | 1024.0 |
| 20260901135705 | 80 | 334 | 6.0 | 13.0 | 0.00 | 0.00 | 0.00 | 38 | 1023.8 |
| 20260901135206 | 81 | 339 | 4.0 | 9.0 | 0.00 | 0.00 | 0.00 | 38 | 1024.1 |
| 20260901134206 | 81 | 353 | 8.0 | 13.0 | 0.00 | 0.00 | 0.00 | 37 | 1023.9 |
| 20260901133706 | 82 | 338 | 6.0 | 16.0 | 0.00 | 0.00 | 0.00 | 37 | 1024.1 |
| 20260901133207 | 82 | 0 | 10.0 | 14.0 | 0.00 | 0.00 | 0.00 | 37 | 1023.9 |
| 20260901132206 | 82 | 332 | 5.0 | 10.0 | 0.00 | 0.00 | 0.00 | 38 | 1024.0 |
| 20260901131205 | 83 | 331 | 5.0 | 13.0 | 0.00 | 0.00 | 0.00 | 38 | 1024.0 |
| 20260901130707 | 82 | 281 | 9.0 | 18.0 | 0.00 | 0.00 | 0.00 | 37 | 1024.0 |
| 20260901125705 | 82 | 283 | 9.0 | 15.0 | 0.00 | 0.00 | 0.00 | 38 | 1024.1 |
| 20260901123706 | 80 | 344 | 7.0 | 13.0 | 0.00 | 0.00 | 0.00 | 41 | 1024.2 |
| 20260901122706 | 82 | 331 | 6.0 | 13.0 | 0.00 | 0.00 | 0.00 | 40 | 1024.2 |
| 20260901122205 | 81 | 312 | 6.0 | 12.0 | 0.00 | 0.00 | 0.00 | 40 | 1024.1 |
| 20260901121705 | 80 | 291 | 7.0 | 17.0 | 0.00 | 0.00 | 0.00 | 41 | 1024.3 |
| 20260901121205 | 79 | 351 | 5.0 | 13.0 | 0.00 | 0.00 | 0.00 | 43 | 1024.3 |
| 20260901120706 | 79 | 290 | 7.0 | 18.0 | 0.00 | 0.00 | 0.00 | 41 | 1024.5 |
| 20260901115705 | 79 | 287 | 9.0 | 18.0 | 0.00 | 0.00 | 0.00 | 42 | 1024.5 |
| 20260901115206 | 78 | 284 | 8.0 | 15.0 | 0.00 | 0.00 | 0.00 | 43 | 1024.4 |
| 20260901114705 | 79 | 350 | 8.0 | 14.0 | 0.00 | 0.00 | 0.00 | 43 | 1024.5 |
| 20260901114205 | 79 | 317 | 7.0 | 13.0 | 0.00 | 0.00 | 0.00 | 43 | 1024.5 |
| 20260901113705 | 78 | 335 | 5.0 | 12.0 | 0.00 | 0.00 | 0.00 | 44 | 1024.6 |
| 20260901112706 | 78 | 284 | 8.0 | 24.0 | 0.00 | 0.00 | 0.00 | 43 | 1024.3 |
| 20260901111206 | 78 | 290 | 7.0 | 13.0 | 0.00 | 0.00 | 0.00 | 45 | 1024.3 |
| 20260901110707 | 78 | 309 | 5.0 | 15.0 | 0.00 | 0.00 | 0.00 | 46 | 1024.3 |
| 20260901110206 | 78 | 354 | 6.0 | 13.0 | 0.00 | 0.00 | 0.00 | 45 | 1024.4 |
| 20260901105705 | 78 | 346 | 7.0 | 13.0 | 0.00 | 0.00 | 0.00 | 47 | 1024.4 |
| 20260901105205 | 77 | 336 | 6.0 | 13.0 | 0.00 | 0.00 | 0.00 | 46 | 1024.3 |